Location: Rounton
(54.4000°N, 1.3500°W)
Time: 21:59:01
(UTC+00:00)

Explorer 7 - Pass Details

Date: 01 December 2021
Orbit: 483 x 674 km, 50.3° (Epoch: 17 January)

Event Time Altitude Azimuth Distance (km) Brightness Sun altitude
Rises 11:39:42 0° 274° (W) 2,628 10.2 13.7°
Reaches altitude 10° 11:42:11 10° 262° (W) 1,714 9.5 13.7°
Maximum altitude 11:45:24 26° 205° (SSW) 1,013 9.5 13.7°
Drops below altitude 10° 11:48:33 10° 148° (SSE) 1,667 10.5 13.7°
Sets 11:50:55 0° 135° (SE) 2,538 11.0 13.7°
